STARLINK-4216, 53022

Orbit data source: Space-Track

STARLINK-4216, 53022 is a payload satellite owned by SpaceX/Seattle (US) in LEO that was launched on Thu, 07 Jul 2022 UTC via an FALCON 9 launch vehicle from the Air Force Eastern Test Range (AFETR). Payload-class satellites include a variety of spacecraft equipped with specific instruments for various scientific and technological missions. These include communications satellites like Starlink; space stations such as the ISS; scientific satellites like the Hubble; Earth observation satellites from companies like Planet Labs, Umbra, and HawkEye 360; GPS; miniature CubeSats for education and research; and military/defense satellites.

Loading next visibility...
Identifier
53022, 2022-076AN
Orbit
LEO
Country
Flag of USUS
Related business
Manufacturer
SpaceX/Seattle
Mission
Operational Commercial Communications
Bus & Motor
STARLINK, Unknown motor
Mass
297 kg wet, ~275 kg dry
Launch date (UTC)
2022-07-07 (4 years ago)
Launch vehicle
FALCON 9
Launch site
Air Force Eastern Test Range (AFETR)
Object type
Payload
Rocket body
Debris
Shape & HBR
Box + 1 Pan, 10.1 m
Radar Cross Section
13.562 m², Large (>1 m²)

Expand to show TLE details & history
Last TLE update: 2 days ago

TLE from 2 days ago
0 STARLINK-4216
1 53022U 22076AN  26171.21890909  .00001572  00000-0  11687-3 0  9995
2 53022  53.1607 343.7310 0001198  97.1320 262.9808 15.08828684218464
Epoch: 2026-06-20T05:15Z
TLE epoch observation values (Epoch: 2026-06-20T05:15:13.745Z)
Latitude
0.00001°
Longitude
-3.51294°
Altitude
540.771 km
Speed
7.593 km/s
True Right ascension
22h 54m 55s
True Declination
0° 00' 00"
Sunlit
Object was in daylight at epoch
Visualization orbit readout
Latitude
Unknown
Longitude
Unknown
Altitude
Unknown
Speed
Unknown
Apparent Right ascension
Unknown
Apparent Declination
Unknown
Sunlit
N/A
Visualization observer readout
Local Sidereal Time
21:59:47
Azimuth
Unknown
Elevation
Unknown
Doppler factor
Unknown
Orbital elements
Apogee altitude
540.861 km
Perigee altitude
539.203 km
Semi-major axis
6,918.169 km
Eccentricity
0.00012
Inclination
53.1607°
RAAN
343.731°
Arg. of periapsis
97.132°
True anomaly
262.96718°
Mean anomaly
262.9808°
Eccentric anomaly
262.97399°
Mean motion
3.77187 °/min
Orbital period
95.44 mins
BSTAR
0.00011687
Loading maneuver chart data...
Computing Atmospheric mass density...
Loading historical data...
Loading historical data...
Loading historical data...
Loading historical data...
Loading historical data...
Loading historical data...
Loading historical data...

Documentation

Showing up to 5 results
|